240P/NEAT (2010)

Japanese version
Home page
Updated on December 8, 2011

---------------------------------------------------------------------

* Profile

Designation 240P/2010 P1
Recovery Date August 9, 10, 11, 2010
Magnitude 17.3, 16.9, 17.5, 16.8 mag
Recoverer H. Taylor (Rayle, GA, U.S.A.), Hidetaka Sato (Tokyo, Japan; remotely, RAS Observatory, Mayhill, NM, U.S.A.), Leonid Elenin (Lyubertsy, Russia; remotely, ISON-NM Observatory, Mayhill), Toru Yusa (remotely, RAS Observatory, Mayhill, NM, U.S.A.)

* Pictures

* Orbital Elements

Epoch 2010 Oct. 11.0 TT = JDT 2455480.5
T 2010 Oct. 4.27513 TT                                  MPC
q   2.1237550            (2000.0)            P               Q
n   0.12987874     Peri.  351.92706     +0.38104232     -0.84037112
a   3.8616893      Node    74.97444     +0.86899968     +0.18318706
e   0.4500451      Incl.   23.52257     +0.31566802     +0.51011653
P   7.59
From 546 observations 2002 Oct. 5-2010 Dec. 18, mean residual 0".6.

* Finding Charts

* Magnitudes Graph

        m1 =    7.8 + 5 log d +  20.0 log r           [   ,174]  (             - 2011 Mar. 27)
        m1 = -249   + 5 log d + 800   log r(t - 210)  [174,210]  (2011 Mar. 27 - 2011 May   2)
        m1 =    6.1 + 5 log d +  20.0 log r(t - 230)  [210,   ]  (2011 May   2 -             )

---------------------------------------------------------------------

The orbital elements are published on M.P.E.C. 2010-Y12.
The charts are made with StellaNavigator Ver.8 (AstroArts).
The magnitudes graphs are made with Comet for Windows.

---------------------------------------------------------------------

Copyright(C) Seiichi Yoshida (comet@aerith.net). All rights reserved.